www.pogodaiklimat.ru

Погода и климат >> Архив погоды >> Австралия >> Halls Creek Airport


ПОГОДА в Halls Creek Airport

  • Прогноз погоды в Halls Creek Airport
  • Монитор погоды в Halls Creek Airport
  • Климат города

АРХИВ ПОГОДЫ в Halls Creek Airport

Время (UTC), дата Ветер
(напр.,м/с)
 
Видим.   Явления Облачность Т
(С)
Тd
(С)
f
(%)
Тe
(С)
Тes
(С)
Комфортность P
(гПа)
Po
(гПа)
Тmin
(С)
Tmax
(С)
R
(мм)
R24
(мм)
S
(см)
01 11.08 ЮВ 7 н/о н/о +18.1 -0.2 29 +17 +17 1019.6 972.7 +14.6
03 11.08 Ю 7 н/о н/о +20.4 -0.3 25 +20 +20 1018.5 971.6
04 11.08 Ю 7 н/о н/о +22.4 -0.3 22 +22 +22 комфорт 1017.6 970.8
06 11.08 Ю 5 н/о н/о +23.5 -1.4 19 +22 +22 комфорт 1015.9 969.2
07 11.08 Ю 5 н/о н/о +23.4 -2.2 18 +22 +22 комфорт 1015.8 969.1
09 11.08 Ю 6 н/о н/о +21.5 -3.8 18 +21 +21 комфорт 1016.6 969.8
10 11.08 Ю 5 н/о н/о +19.9 -4.4 19 +20 +20 1017.3 970.5
12 11.08 Ю 5 н/о н/о +18.0 -6.6 18 +18 +18 1018.6 971.7
13 11.08 Ю 6 н/о н/о +17.3 -11.3 13 +17 +17 1019.1 972.2 +24.3
15 11.08 ЮВ 6 н/о н/о +15.8 -11.6 14 +15 +15 1019.3 972.4
16 11.08 ЮВ 6 н/о н/о +15.3 -11.1 15 +14 +14 1019.0 972.1
18 11.08 ЮВ 5 н/о н/о +13.4 -9.7 19 +12 +12 1018.7 971.8
19 11.08 ЮВ 5 н/о н/о +12.8 -8.9 21 +11 +11 1018.7 971.8
21 11.08 ЮВ 7 н/о н/о +12.3 -7.1 25 +10 +10 1019.1 972.2
22 11.08 ЮВ 6 н/о н/о +12.1 -6.3 27 +10 +10 1019.9 973.0
00 12.08 В 10 н/о н/о +15.1 -4.8 25 +13 +13 1021.7 974.7
01 12.08 В 10 н/о н/о +17.0 -4.3 23 +16 +16 1021.7 974.7 +11.8
03 12.08 В 9 н/о н/о +21.1 -4.1 18 +20 +20 1020.6 973.6
04 12.08 В 8 н/о н/о +22.9 -3.4 17 +21 +21 комфорт 1019.4 972.5
06 12.08 ЮВ 7 н/о н/о +24.1 -5.0 14 +22 +22 комфорт 1017.4 970.6
07 12.08 ЮВ 7 н/о н/о +24.2 -4.9 14 +22 +22 комфорт 1017.0 970.2
09 12.08 В 8 н/о н/о +21.7 -7.9 13 +20 +20 1017.7 970.9
10 12.08 В 5 н/о н/о +19.8 -8.4 14 +19 +19 1018.4 971.5
12 12.08 В 5 н/о н/о +17.4 -10.3 14 +17 +17 1019.8 972.9
13 12.08 В 6 н/о н/о +17.3 -13.4 11 +17 +17 1020.2 973.3 +24.8
15 12.08 В 5 н/о н/о +15.7 -10.8 15 +15 +15 1020.8 973.8
16 12.08 В 4 н/о н/о +14.2 -9.7 18 +13 +13 1020.8 973.8
18 12.08 В 4 н/о н/о +13.6 -8.9 20 +13 +13 1020.3 973.4
19 12.08 В 4 н/о н/о +12.5 -8.6 22 +11 +11 1020.2 973.3
21 12.08 В 6 н/о н/о +12.6 -7.4 24 +11 +11 1021.2 974.2
22 12.08 В 6 н/о н/о +12.4 -7.0 25 +10 +10 1022.0 975.0
00 13.08 В 8 н/о н/о +15.3 -5.1 24 +14 +14 1023.4 976.3
01 13.08 В 10 н/о н/о +16.5 -5.3 22 +15 +15 1023.6 976.5 +11.9
03 13.08 В 7 н/о н/о +20.8 -5.9 16 +20 +20 1021.6 974.6
04 13.08 В 7 н/о н/о +21.4 -7.2 14 +20 +20 1020.3 973.4
06 13.08 В 8 н/о н/о +23.1 -10.1 10 +21 +21 комфорт 1018.5 971.6
07 13.08 В 5 н/о н/о +23.0 -10.2 10 +21 +21 комфорт 1018.0 971.2
09 13.08 В 5 н/о н/о +21.2 -10.4 11 +20 +20 1018.7 971.8
10 13.08 В 3 н/о н/о +17.6 -10.2 14 +18 +18 1019.0 972.1
12 13.08 В 3 н/о н/о +12.6 -9.1 21 +12 +12 1020.3 973.4
13 13.08 В 3 н/о н/о +11.7 -9.3 22 +11 +11 1020.6 973.6 +23.9
15 13.08 штиль 0 н/о н/о +8.7 -9.2 27 +9 +9 1020.6 973.6
16 13.08 ЮВ 2 н/о н/о +8.8 -8.7 28 +8 +8 1020.5 973.5
18 13.08 В 3 н/о н/о +8.6 -8.4 29 +7 +7 1019.8 972.9
19 13.08 В 2 н/о н/о +8.5 -8.5 29 +8 +8 1019.6 972.7
21 13.08 СВ 3 н/о н/о +8.8 -7.4 31 +7 +7 1019.9 973.0
22 13.08 В 3 н/о н/о +9.3 -7.4 30 +8 +8 1020.3 973.4
00 14.08 В 8 н/о н/о +17.1 -8.9 16 +16 +16 1021.3 974.3
01 14.08 В 9 н/о н/о +19.8 -10.4 12 +19 +19 1021.2 974.2 +6.7
03 14.08 В 8 н/о н/о +21.9 -12.4 9 +20 +20 1019.6 972.7
04 14.08 В 6 н/о н/о +23.1 -12.9 8 +20 +20 1018.4 971.5
06 14.08 В 4 н/о н/о +25.1 -15.0 6 +22 +22 комфорт 1016.7 969.9
07 14.08 В 4 н/о н/о +25.4 -14.7 6 +22 +22 комфорт 1016.0 969.3
09 14.08 В 4 н/о н/о +23.4 -14.3 7 +20 +20 1015.9 969.2
10 14.08 В 2 н/о н/о +16.9 -14.9 10 +17 +17 1016.4 969.6
12 14.08 ЮВ 2 н/о н/о +12.1 -12.9 16 +12 +12 1017.2 970.4
13 14.08 ЮВ 2 н/о н/о +11.4 -12.7 17 +11 +11 1017.1 970.3 +26.2
15 14.08 штиль 0 н/о н/о +8.0 -11.8 23 +8 +8 1017.4 970.6
16 14.08 З 3 н/о н/о +9.5 -12.3 20 +8 +8 1017.2 970.4
18 14.08 штиль 0 н/о н/о +4.7 -11.4 30 +5 +5 1017.0 970.2
19 14.08 штиль 0 н/о н/о +3.8 -11.3 32 +4 +4 1016.8 970.0
21 14.08 З 2 н/о н/о +10.1 -11.5 21 +10 +10 1017.2 970.4
22 14.08 З 2 н/о н/о +3.1 -10.8 35 +2 +2 1017.7 970.9
00 15.08 В 4 н/о н/о +18.6 -11.3 12 +18 +18 1018.6 971.7
01 15.08 В 4 н/о н/о +21.9 -11.1 10 +20 +20 1018.8 971.9 +2.5
03 15.08 В 3 н/о н/о +24.6 -13.4 7 +22 +22 комфорт 1016.8 970.0
04 15.08 С 3 н/о н/о +26.0 -12.4 7 +23 +23 комфорт 1015.5 968.8
06 15.08 СВ 3 н/о н/о +27.1 -11.6 7 +23 +23 комфорт 1013.5 966.9
07 15.08 ЮВ 3 н/о н/о +27.5 -11.3 7 +24 +24 комфорт 1013.1 966.5
09 15.08 СВ 2 н/о н/о +25.1 -11.4 8 +22 +22 комфорт 1013.3 966.7
10 15.08 СВ 1 н/о н/о +16.9 -11.7 13 +19 +19 1013.7 967.1
12 15.08 штиль 0 н/о н/о +12.2 -10.1 20 +12 +12 1014.8 968.1
13 15.08 штиль 0 н/о н/о +11.5 -9.4 22 +12 +12 1015.0 968.3 +28.1
15 15.08 СВ 1 н/о н/о +10.3 -9.4 24 +11 +11 1015.1 968.4
16 15.08 штиль 0 н/о н/о +8.2 -9.2 28 +8 +8 1014.8 968.1
18 15.08 штиль 0 н/о н/о +6.4 -8.3 34 +6 +6 1014.4 967.7
19 15.08 штиль 0 н/о н/о +5.8 -8.8 34 +6 +6 1014.1 967.4
21 15.08 штиль 0 н/о н/о +5.5 -8.0 37 +5 +5 1014.2 967.5
22 15.08 штиль 0 н/о н/о +4.9 -7.5 40 +5 +5 1014.6 967.9
00 16.08 СВ 1 н/о н/о +19.8 -7.5 15 +21 +21 комфорт 1015.3 968.6
01 16.08 В 4 н/о н/о +25.1 -8.6 10 +22 +22 комфорт 1015.5 968.8 +4.8
03 16.08 В 4 н/о н/о +27.5 -8.2 9 +24 +24 комфорт 1013.7 967.1
04 16.08 В 3 н/о н/о +27.7 -6.6 10 +24 +24 комфорт 1012.7 966.1
06 16.08 С 4 н/о н/о +28.3 -7.6 9 +25 +25 комфорт 1010.8 964.3
07 16.08 В 2 н/о н/о +28.8 -7.2 9 +25 +25 комфорт 1010.5 964.0
09 16.08 В 3 н/о н/о +26.9 -8.6 9 +24 +24 комфорт 1011.1 964.6
10 16.08 З 3 н/о н/о +22.0 -6.7 14 +20 +20 1011.5 965.0
12 16.08 В 2 н/о н/о +16.1 -5.6 22 +17 +17 1012.8 966.2
13 16.08 штиль 0 н/о н/о +13.6 -6.0 25 +14 +14 1013.1 966.5 +29.7
15 16.08 СВ 2 н/о н/о +12.9 -5.1 28 +13 +13 1013.2 966.6
16 16.08 СЗ 1 н/о н/о +11.5 -5.4 30 +12 +12 1012.8 966.2
18 16.08 СВ 1 н/о н/о +10.7 -6.1 30 +12 +12 1012.0 965.4
19 16.08 С 1 н/о н/о +9.2 -5.8 34 +10 +10 1011.9 965.3
21 16.08 СВ 1 н/о н/о +8.1 -5.3 38 +9 +9 1012.6 966.0
22 16.08 штиль 0 н/о н/о +7.6 -4.2 43 +7 +7 1013.1 966.5
00 17.08 В 2 н/о н/о +21.8 -5.1 16 +21 +21 комфорт 1014.2 967.5
01 17.08 В 3 н/о н/о +25.7 -4.7 13 +23 +23 комфорт 1014.5 967.8 +7.2
03 17.08 В 6 н/о н/о +28.7 -5.9 10 +25 +25 комфорт 1013.0 966.4
04 17.08 С 5 н/о н/о +29.5 -5.3 10 +26 +26 жарко 1012.2 965.6
06 17.08 В 5 н/о н/о +29.8 -6.4 9 +26 +26 жарко 1010.7 964.2
07 17.08 СВ 3 н/о н/о +29.7 -6.5 9 +26 +26 жарко 1010.4 963.9
09 17.08 СЗ 1 н/о н/о +27.7 -6.6 10 +24 +24 комфорт 1011.2 964.7
10 17.08 штиль 0 н/о н/о +20.7 -4.4 18 +20 +20 1012.0 965.4
12 17.08 ЮЗ 2 н/о н/о +17.8 -3.6 23 +18 +18 1013.6 967.0
13 17.08 В 1 н/о н/о +16.0 -3.5 26 +18 +18 1014.1 967.4 +30.9
15 17.08 ЮЗ 2 н/о н/о +13.9 -3.4 30 +14 +14 1014.5 967.8
16 17.08 штиль 0 н/о н/о +11.8 -3.9 33 +12 +12 1014.2 967.5
18 17.08 С 1 н/о н/о +11.1 -3.4 36 +11 +11 1013.7 967.1
19 17.08 штиль 0 н/о н/о +9.9 -3.7 38 +10 +10 1013.8 967.2
21 17.08 штиль 0 н/о н/о +9.1 -3.4 41 +9 +9 1014.7 968.0
22 17.08 ЮВ 1 н/о н/о +8.7 -3.2 43 +9 +9 1015.3 968.6

 

Местоположение метеостанции Halls Creek Airport (Западная Австралия, Австралия): широта -18.23 долгота 127.66 высота над уровнем моря 424 м.

В архиве по умолчанию представлена погода в Halls Creek Airport за последнюю неделю. Архивные данные за месяц целиком и за предыдущие месяцы, начиная с января 2011 года, Вы можете получить, выбрав интересующий диапазон дат из раскрывающегося списка и нажав кнопку "Ввод!".


*Определитесь, кто Вы:
робот инопланетянин человек

Внимание! Время в таблицах - всемирное. Для получения местного времени необходимо прибавить поправку, которая в Halls Creek Airport равна 8 ч.

Смотрите также архив погоды в соседних городах и на ближайших метеорологических станциях:

Погода в Argyle Aero (Западная Австралия, Австралия) (197 км)
Погода в Fitzroy Crossing Aero (Западная Австралия, Австралия) (222 км)
Погода в Kununurra (Западная Австралия, Австралия) (294 км)
Погода в Wyndham Aero (Западная Австралия, Австралия) (308 км)
Погода в Lajamanu (Северная территория, Австралия) (314 км)
Погода в Rabbit Flat (Северная территория, Австралия) (329 км)
Погода в Victoria River Downs (Северная территория, Австралия) (411 км)
Погода в Curtin Aero (Западная Австралия, Австралия) (413 км)
Погода в Derby Aero (Северная территория, Австралия) (435 км)
Погода в Kalumburu (Западная Австралия, Австралия) (450 км)

Пояснения к столбцам:

Ветер - указаны скорость ветра в м/с - средняя за 10 мин, порывы в срок и между сроками (в фигурных скобках) и направление, откуда дует ветер: С - северный, СВ - северо-восточный, В - восточный, ЮВ - юго-восточный, Ю - южный, ЮЗ - юго-западный, З - западный, СЗ - северо-западный.
Видимость - горизонтальная дальность видимости в метрах или километрах. При видимости от 1 до 10 км при отсутствии осадков обычно наблюдается дымка, при ухудшении видимости до 1 км и менее - туман. В сухую погоду видимость может ухудшаться дымом, пылью или мглою.
Явления - указаны атмосферные явления, наблюдавшиеся в срок или в последний час перед сроком; фигурными скобками обозначены явления, наблюдавшиеся между сроками (за 1-3 часа до срока); квадратными скобками обозначены град или гололедные отложения с указанием их диаметра в мм.
Облачность - указаны через наклонную черту общая и нижняя облачность в баллах и высота нижней границы облаков в метрах; квадратными скобками обозначены формы облаков: Ci - перистые, Cs - перисто-слоистые, Cc - перисто-кучевые, Ac - высококучевые, As - высокослоистые, Sc - слоисто-кучевые, Ns - слоисто-дождевые, Cu - кучевые, Cb - кучево-дождевые. Подробнее классификацию облаков см. в Атласе облаков (PDF).
T - Температура воздуха - температура, измеренная на высоте 2 м над землей.
Td - Температура точки росы - температура, при понижении до которой содержащийся в воздухе водяной пар достигнет насыщения.
f - Относительная влажность воздуха - влажноcть воздуха, измеренная на высоте 2 м над землей.
Te - Эффективная температура - температура, которую ощущает одетый по сезону человек в тени. Характеристика душности погоды. При расчете учитывается влияние влажности воздуха и скорости ветра на теплоощущения человека.
Tes - Эффективная температура на солнце - температура, которую ощущает человек, с поправкой на солнечный нагрев. Характеристика знойности погоды. Зависит от высоты солнца над горизонтом, облачности и скорости ветра. Ночью, в пасмурную погоду, а также при ветре 12 м/с и более поправка равна нулю.
P - Атмосферное давление - приведенное к уровню моря атмосферное давление.
Po - Атмосферное давление - измеренное на уровне метеостанции атмосферное давление.
Tmin - Минимальная температура - минимум температуры воздуха на высоте 2 м над землей.
Tmax - Максимальная температура - максимум температуры воздуха на высоте 2 м над землей.
R - Количество осадков - Количество выпавших осадков за период времени, мм. При наведении курсора мыши на число - период времени, за который выпало указанное количество осадков.
R24 - Количество осадков - Количество выпавших осадков за 24 часа, мм.
S - Снежный покров - Высота снежного покрова, см. При наведении курсора мыши на число - состояние снежного покрова и степень покрытия местности в баллах.